Avioradar koristi kolačiće da bi Vam omogućio jednostavnije i ugodnije korištenje stranice. 

AVIORADAR - Croatian aviation website

METAR & TAF

[Source: ADDS]
METAR
LDZA 151300Z VRB02KT CAVOK 26/14 Q1024 NOSIG =
LDZA 151125Z 1512/1612 VRB02KT CAVOK TX26/1513Z TN11/1604Z PROB30 TEMPO 1603/1606 1500 BCFG LDSP 151300Z 23011KT CAVOK 27/14 Q1022 NOSIG =
LDSP 151125Z 1512/1612 23008KT CAVOK TX29/1513Z TN19/1605Z TEMPO 1512/1514 23011KT BECMG 1515/1517 30007KT BECMG 1610/1612 23010KT LDDU 151300Z 30007KT 260V020 CAVOK 26/11 Q1023 NOSIG =
LDDU 151125Z 1512/1612 29010KT CAVOK TX27/1512Z TN20/1605Z BECMG 1517/1519 02009KT BECMG 1610/1612 29009KT LDPL 151300Z 27007KT 230V310 CAVOK 26/17 Q1023 NOSIG =
LDPL 151125Z 1512/1612 27008KT CAVOK TX28/1512Z TN19/1604Z BECMG 1517/1519 VRB02KT BECMG 1610/1612 27008KT LDZD 151300Z VRB06KT CAVOK 29/12 Q1023 BECMG 30010KT =
LDZD 151125Z 1512/1612 30010KT CAVOK TX29/1512Z TN15/1605Z BECMG 1516/1518 VRB02KT PROB40 TEMPO 1600/1605 1200 BCFG PROB30 TEMPO 1601/1605 0400 FG BECMG 1610/1612 30008KT LDRI 151300Z 27005KT 210V310 CAVOK 28/13 Q1023 =
LDRI 151125Z 1512/1612 32007KT CAVOK TX28/1512Z TN19/1604Z BECMG 1515/1516 VRB02KT BECMG 1607/1609 29007KT LDOS 151300Z 16004KT 100V220 CAVOK 26/12 Q1024 =
LDOS 151125Z 1512/1612 VRB02KT CAVOK TX25/1513Z TN10/1604Z
TAF
LDZA 151125Z 1512/1612 VRB02KT CAVOK TX26/1513Z TN11/1604Z PROB30 TEMPO 1603/1606 1500 BCFG =
LDSP 151125Z 1512/1612 23008KT CAVOK TX29/1513Z TN19/1605Z TEMPO 1512/1514 23011KT BECMG 1515/1517 30007KT BECMG 1610/1612 23010KT =
LDDU 151125Z 1512/1612 29010KT CAVOK TX27/1512Z TN20/1605Z BECMG 1517/1519 02009KT BECMG 1610/1612 29009KT =
LDPL 151125Z 1512/1612 27008KT CAVOK TX28/1512Z TN19/1604Z BECMG 1517/1519 VRB02KT BECMG 1610/1612 27008KT =
LDZD 151125Z 1512/1612 30010KT CAVOK TX29/1512Z TN15/1605Z BECMG 1516/1518 VRB02KT PROB40 TEMPO 1600/1605 1200 BCFG PROB30 TEMPO 1601/1605 0400 FG BECMG 1610/1612 30008KT =
LDRI 151125Z 1512/1612 32007KT CAVOK TX28/1512Z TN19/1604Z BECMG 1515/1516 VRB02KT BECMG 1607/1609 29007KT =
LDOS 151125Z 1512/1612 VRB02KT CAVOK TX25/1513Z TN10/1604Z =
SR / SS: 04:34 / 17:07 UTC (Zagreb 2019-09-15)